Regional Weather Roundup
Issued by NWS

Home | Current Version | Previous Version | Graphics & Text | Print | Product List | Glossary On
Versions: 1 2 3 4 5 6 7 8 9 10 11 12 13 14 15 16 17 18 19 20 21 22 23 24 25 26 27 28 29 30 31 32 33 34 35 36 37 38 39 40 41 42 43 44 45 46 47 48 49 50
000
ASUS43 KTOP 210308
RWRKS

WEATHER ROUNDUP FOR KANSAS
NATIONAL WEATHER SERVICE GOODLAND KS
1000 PM CDT MON OCT 20 2014

NOTE:  "FAIR" INDICATES FEW OR NO CLOUDS BELOW 12,000 FEET WITH NO
SIGNIFICANT WEATHER AND/OR OBSTRUCTIONS TO VISIBILITY.

KSZ001>006-013>018-027>032-041>047-210400-
NORTHWEST KANSAS

CITY           SKY/WX    TMP DP  RH WIND       PRES   REMARKS
GOODLAND       CLEAR     53  39  59 S12       30.11S
HAYS           CLEAR     55  43  62 SE3       30.09R
HILL CITY      CLEAR     53  41  63 CALM      30.09R
RUSSELL        CLEAR     54  45  71 S8        30.07S
$$

KSZ061>065-074>080-084>089-210400-
SOUTHWEST KANSAS

CITY           SKY/WX    TMP DP  RH WIND       PRES   REMARKS
DODGE CITY     CLEAR     56  43  61 SE7       30.11R
ELKHART          N/A     55  49  80 SE8         N/A
GARDEN CITY    CLEAR     54  42  64 SE8       30.11R
GREAT BEND     CLEAR     55  45  67 SE3       30.10R
LIBERAL        CLEAR     63  52  67 E7        30.12R
PRATT          CLEAR     61  43  51 E3        30.10S
$$

KSZ066>073-081>083-090>101-210400-
SOUTHEAST KANSAS

CITY           SKY/WX    TMP DP  RH WIND       PRES   REMARKS
CHANUTE        CLEAR     54  50  86 CALM      30.07R
COFFEYVILLE    CLEAR     58  55  90 SE3       30.05R
HUTCHINSON     CLEAR     55  45  68 CALM      30.08R
MEDICINE LODGE   N/A     58  49  72 CALM      30.07R
NEWTON         CLEAR     63  43  48 E5        30.10R
PARSONS        CLEAR     54  53  97 CALM      30.07R
WICHITA INTL   CLEAR     66  46  48 NE3       30.07R
WICHITA JABRA  FAIR      59  45  59 NE3       30.07R
WICHITA MCCONL CLEAR     60  47  62 E1        30.08R
WINFIELD       CLEAR     61  53  75 E3        30.07R
$$

KSZ007>012-019>026-033>040-048>060-102>105-210400-
NORTHEAST KANSAS

CITY           SKY/WX    TMP DP  RH WIND       PRES   REMARKS
CONCORDIA      CLEAR     58  43  57 S7        30.07R
EMPORIA        CLEAR     57  46  66 E3        30.07R
LAWRENCE       CLEAR     46  43  89 NW5       30.07R
MANHATTAN      CLEAR     47  43  86 CALM      30.08R
MARYSVILLE     CLEAR     54  41  62 SE3       30.07S
OLATHE IND     CLEAR     56  45  66 E3        30.07R
OLATHE EXE     CLEAR     52  47  83 CALM      30.06R
SALINA         CLEAR     54  47  77 SW6       30.08R
TOPEKA BILLARD CLEAR     51  46  83 CALM      30.08R
TOPEKA FORBES  CLEAR     51  45  79 CALM      30.07R
$$


USA.gov is the U.S. government's official web portal to all federal, state and local government web resources and services.